| time (UTC) | temp C | wind direction | speed KPH | gust KPH | rain 1hr cm | rain 24hr cm | rain mn cm | humidity % | barometer mb |
| 20260906095521 | 25 | 0 | 0.0 | 0.0 | 0.00 | 0.00 | 0.00 | 8 | 1012.8 |
| 20260906095020 | 25 | 0 | 0.0 | 0.0 | 0.00 | 0.00 | 0.00 | 9 | 1012.8 |
| 20260906094539 | 25 | 0 | 0.0 | 0.0 | 0.00 | 0.00 | 0.00 | 9 | 1012.7 |
| 20260906094020 | 25 | 0 | 0.0 | 0.0 | 0.00 | 0.00 | 0.00 | 9 | 1012.6 |
| 20260906093520 | 25 | 0 | 0.0 | 0.0 | 0.00 | 0.00 | 0.00 | 14 | 1012.3 |
| 20260906093049 | 25 | 0 | 0.0 | 0.0 | 0.00 | 0.00 | 0.00 | 14 | 1012.4 |
| 20260906092521 | 25 | 0 | 0.0 | 0.0 | 0.00 | 0.00 | 0.00 | 14 | 1012.4 |
| 20260906092022 | 25 | 0 | 0.0 | 0.0 | 0.00 | 0.00 | 0.00 | 15 | 1012.4 |
| 20260906091541 | 25 | 0 | 0.0 | 0.0 | 0.00 | 0.00 | 0.00 | 17 | 1012.5 |
| 20260906091019 | 25 | 0 | 0.0 | 0.0 | 0.00 | 0.00 | 0.00 | 17 | 1012.4 |
| 20260906090517 | 25 | 0 | 0.0 | 0.0 | 0.00 | 0.00 | 0.00 | 19 | 1012.4 |
| 20260906090040 | 25 | 0 | 0.0 | 0.0 | 0.00 | 0.00 | 0.00 | 19 | 1012.6 |
| 20260906085522 | 25 | 0 | 0.0 | 0.0 | 0.00 | 0.00 | 0.00 | 22 | 1012.4 |
| 20260906085020 | 25 | 0 | 0.0 | 0.0 | 0.00 | 0.00 | 0.00 | 23 | 1012.4 |
| 20260906084538 | 25 | 0 | 0.0 | 0.0 | 0.00 | 0.00 | 0.00 | 22 | 1012.4 |
| 20260906084020 | 25 | 0 | 0.0 | 0.0 | 0.00 | 0.00 | 0.00 | 23 | 1012.4 |
| 20260906083520 | 25 | 0 | 0.0 | 0.0 | 0.00 | 0.00 | 0.00 | 22 | 1012.2 |
| 20260906083041 | 25 | 0 | 0.0 | 0.0 | 0.00 | 0.00 | 0.00 | 24 | 1012.1 |
| 20260906082522 | 25 | 0 | 0.0 | 0.0 | 0.00 | 0.00 | 0.00 | 25 | 1012.3 |
| 20260906082021 | 25 | 0 | 0.0 | 0.0 | 0.00 | 0.00 | 0.00 | 25 | 1012.1 |
| 20260906081545 | 25 | 0 | 0.0 | 1.6 | 0.00 | 0.00 | 0.00 | 29 | 1012.0 |
| 20260906081020 | 25 | 0 | 0.0 | 1.6 | 0.00 | 0.00 | 0.00 | 28 | 1012.2 |
| 20260906080520 | 25 | 0 | 0.0 | 1.6 | 0.00 | 0.00 | 0.00 | 29 | 1012.2 |
| 20260906080042 | 26 | 0 | 0.0 | 0.0 | 0.00 | 0.00 | 0.00 | 30 | 1012.3 |
| 20260906075518 | 26 | 0 | 0.0 | 0.0 | 0.00 | 0.00 | 0.00 | 33 | 1012.3 |
| 20260906075020 | 26 | 0 | 0.0 | 0.0 | 0.00 | 0.00 | 0.00 | 35 | 1012.3 |
| 20260906074541 | 26 | 0 | 0.0 | 0.0 | 0.00 | 0.00 | 0.00 | 33 | 1012.3 |
| 20260906074020 | 26 | 0 | 0.0 | 1.6 | 0.00 | 0.00 | 0.00 | 32 | 1012.5 |
| 20260906073523 | 26 | 0 | 0.0 | 1.6 | 0.00 | 0.00 | 0.00 | 33 | 1012.4 |
| 20260906073042 | 26 | 0 | 0.0 | 1.6 | 0.00 | 0.00 | 0.00 | 34 | 1012.4 |
| 20260906072520 | 26 | 0 | 0.0 | 0.0 | 0.00 | 0.00 | 0.00 | 33 | 1012.7 |
| 20260906072022 | 26 | 0 | 0.0 | 4.8 | 0.00 | 0.00 | 0.00 | 32 | 1012.7 |
| 20260906071540 | 26 | 0 | 0.0 | 4.8 | 0.00 | 0.00 | 0.00 | 30 | 1012.7 |
| 20260906071020 | 26 | 0 | 0.0 | 3.2 | 0.00 | 0.00 | 0.00 | 29 | 1012.8 |
| 20260906070522 | 26 | 0 | 0.0 | 1.6 | 0.00 | 0.00 | 0.00 | 30 | 1012.5 |
| 20260906070040 | 26 | 0 | 0.0 | 0.0 | 0.00 | 0.00 | 0.00 | 34 | 1012.3 |
| 20260906065523 | 26 | 0 | 0.0 | 0.0 | 0.00 | 0.00 | 0.00 | 36 | 1012.3 |
| 20260906065022 | 26 | 0 | 0.0 | 0.0 | 0.00 | 0.00 | 0.00 | 39 | 1012.1 |
| 20260906064545 | 26 | 0 | 0.0 | 0.0 | 0.00 | 0.00 | 0.00 | 37 | 1012.3 |
| 20260906064020 | 26 | 0 | 0.0 | 0.0 | 0.00 | 0.00 | 0.00 | 36 | 1012.2 |
| 20260906063522 | 26 | 0 | 0.0 | 0.0 | 0.00 | 0.00 | 0.00 | 39 | 1012.4 |
| 20260906063041 | 26 | 0 | 0.0 | 0.0 | 0.00 | 0.00 | 0.00 | 41 | 1012.2 |
| 20260906062518 | 26 | 0 | 0.0 | 0.0 | 0.00 | 0.00 | 0.00 | 44 | 1012.1 |
| 20260906062017 | 26 | 0 | 0.0 | 0.0 | 0.00 | 0.00 | 0.00 | 45 | 1012.1 |
| 20260906061541 | 26 | 0 | 0.0 | 0.0 | 0.00 | 0.00 | 0.00 | 44 | 1012.3 |
| 20260906061023 | 26 | 0 | 0.0 | 0.0 | 0.00 | 0.00 | 0.00 | 48 | 1012.3 |
| 20260906060525 | 26 | 0 | 0.0 | 0.0 | 0.00 | 0.00 | 0.00 | 48 | 1012.4 |
| 20260906060040 | 26 | 0 | 0.0 | 0.0 | 0.00 | 0.00 | 0.00 | 48 | 1012.3 |
| 20260906055524 | 26 | 0 | 0.0 | 0.0 | 0.00 | 0.00 | 0.00 | 51 | 1012.4 |
| 20260906055025 | 26 | 0 | 0.0 | 0.0 | 0.00 | 0.00 | 0.00 | 51 | 1012.4 |
| 20260906054544 | 26 | 0 | 0.0 | 0.0 | 0.00 | 0.00 | 0.00 | 50 | 1012.6 |
| 20260906054022 | 26 | 0 | 0.0 | 0.0 | 0.00 | 0.00 | 0.00 | 52 | 1012.7 |
| 20260906053525 | 26 | 0 | 0.0 | 0.0 | 0.00 | 0.00 | 0.00 | 55 | 1012.5 |
| 20260906053041 | 26 | 0 | 0.0 | 0.0 | 0.00 | 0.00 | 0.00 | 55 | 1012.7 |
| 20260906052524 | 26 | 0 | 0.0 | 0.0 | 0.00 | 0.00 | 0.00 | 55 | 1012.5 |
| 20260906052024 | 26 | 0 | 0.0 | 0.0 | 0.00 | 0.00 | 0.00 | 56 | 1012.7 |
| 20260906051546 | 26 | 0 | 0.0 | 0.0 | 0.00 | 0.00 | 0.00 | 57 | 1013.0 |
| 20260906051020 | 26 | 0 | 0.0 | 0.0 | 0.00 | 0.00 | 0.00 | 58 | 1012.9 |
| 20260906050524 | 26 | 0 | 0.0 | 0.0 | 0.00 | 0.00 | 0.00 | 60 | 1012.9 |
| 20260906050046 | 26 | 0 | 0.0 | 0.0 | 0.00 | 0.00 | 0.00 | 62 | 1012.8 |
| 20260906045523 | 26 | 0 | 0.0 | 0.0 | 0.00 | 0.00 | 0.00 | 62 | 1012.8 |
| 20260906045022 | 26 | 0 | 0.0 | 0.0 | 0.00 | 0.00 | 0.00 | 63 | 1012.8 |
| 20260906044544 | 27 | 0 | 0.0 | 0.0 | 0.00 | 0.00 | 0.00 | 63 | 1012.8 |
| 20260906044021 | 27 | 0 | 0.0 | 0.0 | 0.00 | 0.00 | 0.00 | 64 | 1012.8 |
| 20260906043518 | 27 | 0 | 0.0 | 0.0 | 0.00 | 0.00 | 0.00 | 64 | 1012.9 |
| 20260906043039 | 27 | 0 | 0.0 | 0.0 | 0.00 | 0.00 | 0.00 | 64 | 1012.9 |
| 20260906042521 | 27 | 0 | 0.0 | 0.0 | 0.00 | 0.00 | 0.00 | 65 | 1012.9 |
| 20260906042021 | 27 | 0 | 0.0 | 0.0 | 0.00 | 0.00 | 0.00 | 66 | 1012.8 |
| 20260906041541 | 27 | 0 | 0.0 | 0.0 | 0.00 | 0.00 | 0.00 | 66 | 1012.8 |
| 20260906041022 | 27 | 0 | 0.0 | 0.0 | 0.00 | 0.00 | 0.00 | 66 | 1012.9 |
| 20260906040519 | 27 | 0 | 0.0 | 0.0 | 0.00 | 0.00 | 0.00 | 67 | 1013.0 |
| 20260906040043 | 27 | 0 | 0.0 | 0.0 | 0.00 | 0.00 | 0.00 | 66 | 1013.0 |
| 20260906035521 | 27 | 0 | 0.0 | 0.0 | 0.00 | 0.00 | 0.00 | 66 | 1013.1 |
| 20260906035019 | 27 | 0 | 0.0 | 0.0 | 0.00 | 0.00 | 0.00 | 68 | 1013.0 |
| 20260906034542 | 27 | 0 | 0.0 | 1.6 | 0.00 | 0.00 | 0.00 | 68 | 1013.1 |
| 20260906034019 | 27 | 0 | 0.0 | 1.6 | 0.00 | 0.00 | 0.00 | 68 | 1013.0 |
| 20260906033521 | 27 | 0 | 0.0 | 1.6 | 0.00 | 0.00 | 0.00 | 68 | 1012.9 |
| 20260906033038 | 27 | 0 | 0.0 | 1.6 | 0.00 | 0.00 | 0.00 | 69 | 1013.2 |
| 20260906032520 | 27 | 0 | 0.0 | 0.0 | 0.00 | 0.00 | 0.00 | 69 | 1013.2 |
| 20260906032024 | 27 | 0 | 0.0 | 3.2 | 0.00 | 0.00 | 0.00 | 70 | 1013.3 |
| 20260906031544 | 27 | 0 | 0.0 | 3.2 | 0.00 | 0.00 | 0.00 | 69 | 1013.4 |
| 20260906031025 | 27 | 0 | 0.0 | 3.2 | 0.00 | 0.00 | 0.00 | 70 | 1013.3 |
| 20260906030522 | 27 | 0 | 0.0 | 1.6 | 0.00 | 0.00 | 0.00 | 70 | 1013.3 |
| 20260906030045 | 27 | 0 | 0.0 | 0.0 | 0.00 | 0.00 | 0.00 | 71 | 1013.2 |
| 20260906025520 | 27 | 0 | 0.0 | 1.6 | 0.00 | 0.00 | 0.00 | 71 | 1013.2 |
| 20260906025020 | 28 | 0 | 0.0 | 1.6 | 0.00 | 0.00 | 0.00 | 71 | 1013.1 |
| 20260906024541 | 28 | 0 | 0.0 | 1.6 | 0.00 | 0.00 | 0.00 | 71 | 1013.1 |
| 20260906024018 | 28 | 0 | 0.0 | 1.6 | 0.00 | 0.00 | 0.00 | 72 | 1013.1 |
| 20260906023525 | 28 | 0 | 0.0 | 1.6 | 0.00 | 0.00 | 0.00 | 73 | 1013.1 |
| 20260906023048 | 28 | 0 | 0.0 | 0.0 | 0.00 | 0.00 | 0.00 | 73 | 1013.0 |
| 20260906022521 | 28 | 0 | 0.0 | 0.0 | 0.00 | 0.00 | 0.00 | 74 | 1013.1 |
| 20260906022018 | 28 | 0 | 0.0 | 0.0 | 0.00 | 0.00 | 0.00 | 73 | 1013.0 |
| 20260906021545 | 28 | 0 | 0.0 | 1.6 | 0.00 | 0.00 | 0.00 | 74 | 1012.7 |
| 20260906021018 | 28 | 0 | 0.0 | 1.6 | 0.00 | 0.00 | 0.00 | 74 | 1012.7 |
| 20260906020522 | 28 | 0 | 0.0 | 1.6 | 0.00 | 0.00 | 0.00 | 74 | 1012.5 |
| 20260906020041 | 28 | 0 | 0.0 | 0.0 | 0.00 | 0.00 | 0.00 | 74 | 1012.4 |
| 20260906015517 | 28 | 0 | 0.0 | 0.0 | 0.00 | 0.00 | 0.00 | 75 | 1012.3 |
| 20260906015018 | 28 | 0 | 0.0 | 0.0 | 0.00 | 0.00 | 0.00 | 75 | 1012.3 |
| 20260906014548 | 28 | 0 | 0.0 | 0.0 | 0.00 | 0.00 | 0.00 | 75 | 1012.1 |
| 20260906014021 | 28 | 0 | 0.0 | 0.0 | 0.00 | 0.00 | 0.00 | 75 | 1012.0 |
| 20260906013519 | 28 | 0 | 0.0 | 0.0 | 0.00 | 0.00 | 0.00 | 75 | 1011.9 |
| 20260906013046 | 28 | 0 | 0.0 | 1.6 | 0.00 | 0.00 | 0.00 | 75 | 1011.7 |
| 20260906012521 | 28 | 0 | 0.0 | 3.2 | 0.00 | 0.00 | 0.00 | 75 | 1011.7 |
| 20260906012021 | 28 | 0 | 0.0 | 3.2 | 0.00 | 0.00 | 0.00 | 75 | 1011.6 |
| 20260906011540 | 29 | 0 | 0.0 | 3.2 | 0.00 | 0.00 | 0.00 | 75 | 1011.6 |
| 20260906011018 | 29 | 0 | 0.0 | 3.2 | 0.00 | 0.00 | 0.00 | 75 | 1011.5 |
| 20260906010518 | 29 | 0 | 0.0 | 3.2 | 0.00 | 0.00 | 0.00 | 75 | 1011.6 |
| 20260906010043 | 29 | 0 | 0.0 | 3.2 | 0.00 | 0.00 | 0.00 | 75 | 1011.8 |
| 20260906005520 | 29 | 305 | 0.0 | 4.8 | 0.00 | 0.00 | 0.00 | 75 | 1012.0 |
| 20260906005020 | 30 | 0 | 0.0 | 6.4 | 0.00 | 0.00 | 0.00 | 75 | 1012.0 |
| 20260906004540 | 30 | 232 | 0.0 | 6.4 | 0.00 | 0.00 | 0.00 | 74 | 1012.0 |
| 20260906004027 | 30 | 232 | 0.0 | 6.4 | 0.00 | 0.00 | 0.00 | 74 | 1011.9 |
| 20260906003521 | 30 | 0 | 0.0 | 1.6 | 0.00 | 0.00 | 0.00 | 74 | 1011.9 |
| 20260906003042 | 30 | 0 | 0.0 | 4.8 | 0.00 | 0.00 | 0.00 | 74 | 1011.7 |
| 20260906002518 | 30 | 0 | 0.0 | 4.8 | 0.00 | 0.00 | 0.00 | 74 | 1011.7 |
| 20260906002018 | 30 | 0 | 0.0 | 4.8 | 0.00 | 0.00 | 0.00 | 74 | 1011.7 |
| 20260906001540 | 30 | 65 | 0.0 | 4.8 | 0.00 | 0.00 | 0.00 | 73 | 1011.6 |
| 20260906001020 | 31 | 0 | 0.0 | 4.8 | 0.00 | 0.00 | 0.00 | 73 | 1011.6 |
| 20260906000520 | 31 | 352 | 0.0 | 6.4 | 0.00 | 0.00 | 0.00 | 73 | 1011.7 |
| 20260906000042 | 31 | 218 | 0.0 | 6.4 | 0.00 | 0.00 | 0.00 | 72 | 1011.8 |
| 20260905235517 | 31 | 0 | 0.0 | 6.4 | 0.00 | 0.00 | 0.00 | 72 | 1011.8 |
| 20260905235023 | 31 | 0 | 0.0 | 4.8 | 0.00 | 0.00 | 0.00 | 71 | 1011.6 |
| 20260905234545 | 31 | 261 | 0.0 | 6.4 | 0.00 | 0.00 | 0.00 | 71 | 1011.6 |
| 20260905234021 | 31 | 0 | 0.0 | 6.4 | 0.00 | 0.00 | 0.00 | 70 | 1011.7 |
| 20260905233522 | 32 | 352 | 1.6 | 6.4 | 0.00 | 0.00 | 0.00 | 70 | 1011.5 |
| 20260905233041 | 32 | 225 | 0.0 | 6.4 | 0.00 | 0.00 | 0.00 | 70 | 1011.5 |
| 20260905232520 | 32 | 100 | 0.0 | 4.8 | 0.00 | 0.00 | 0.00 | 69 | 1011.5 |
| 20260905232018 | 32 | 0 | 0.0 | 8.0 | 0.00 | 0.00 | 0.00 | 69 | 1011.6 |
| 20260905231541 | 32 | 200 | 0.0 | 8.0 | 0.00 | 0.00 | 0.00 | 69 | 1011.6 |
| 20260905231020 | 32 | 0 | 1.6 | 8.0 | 0.00 | 0.00 | 0.00 | 69 | 1011.6 |
| 20260905230519 | 32 | 234 | 0.0 | 6.4 | 0.00 | 0.00 | 0.00 | 69 | 1011.6 |
| 20260905230042 | 32 | 0 | 1.6 | 8.0 | 0.00 | 0.00 | 0.00 | 68 | 1011.7 |
| 20260905225523 | 32 | 65 | 1.6 | 8.0 | 0.00 | 0.00 | 0.00 | 67 | 1011.8 |
| 20260905225020 | 32 | 0 | 0.0 | 11.3 | 0.00 | 0.00 | 0.00 | 68 | 1011.7 |
| 20260905224538 | 32 | 0 | 0.0 | 11.3 | 0.00 | 0.00 | 0.00 | 68 | 1011.6 |
| 20260905224018 | 32 | 0 | 1.6 | 11.3 | 0.00 | 0.00 | 0.00 | 68 | 1011.6 |
| 20260905223519 | 32 | 219 | 1.6 | 9.7 | 0.00 | 0.00 | 0.00 | 68 | 1011.4 |
| 20260905223041 | 33 | 179 | 1.6 | 9.7 | 0.00 | 0.00 | 0.00 | 68 | 1011.5 |
| 20260905222521 | 33 | 184 | 1.6 | 11.3 | 0.00 | 0.00 | 0.00 | 67 | 1011.5 |
| 20260905222019 | 33 | 128 | 1.6 | 11.3 | 0.00 | 0.00 | 0.00 | 68 | 1011.6 |
| 20260905221544 | 33 | 62 | 1.6 | 9.7 | 0.00 | 0.00 | 0.00 | 68 | 1011.6 |
| 20260905221022 | 33 | 215 | 1.6 | 9.7 | 0.00 | 0.00 | 0.00 | 68 | 1011.5 |
| 20260905220523 | 32 | 0 | 1.6 | 6.4 | 0.00 | 0.00 | 0.00 | 68 | 1011.7 |
| 20260905220041 | 32 | 84 | 0.0 | 9.7 | 0.00 | 0.00 | 0.00 | 69 | 1011.6 |
| 20260905215521 | 33 | 123 | 1.6 | 9.7 | 0.00 | 0.00 | 0.00 | 68 | 1011.6 |
| 20260905215026 | 33 | 226 | 1.6 | 11.3 | 0.00 | 0.00 | 0.00 | 68 | 1011.7 |
| 20260905214539 | 33 | 0 | 0.0 | 11.3 | 0.00 | 0.00 | 0.00 | 67 | 1011.7 |
| 20260905214023 | 33 | 237 | 1.6 | 8.0 | 0.00 | 0.00 | 0.00 | 68 | 1011.6 |
| 20260905213519 | 33 | 0 | 0.0 | 9.7 | 0.00 | 0.00 | 0.00 | 68 | 1011.7 |
| 20260905213041 | 33 | 0 | 1.6 | 9.7 | 0.00 | 0.00 | 0.00 | 68 | 1011.7 |
| 20260905212522 | 33 | 111 | 0.0 | 8.0 | 0.00 | 0.00 | 0.00 | 68 | 1011.9 |
| 20260905212022 | 33 | 0 | 0.0 | 9.7 | 0.00 | 0.00 | 0.00 | 67 | 1011.8 |
| 20260905211542 | 33 | 190 | 1.6 | 9.7 | 0.00 | 0.00 | 0.00 | 67 | 1011.9 |
| 20260905211020 | 33 | 0 | 1.6 | 8.0 | 0.00 | 0.00 | 0.00 | 67 | 1011.8 |
| 20260905210521 | 33 | 266 | 1.6 | 8.0 | 0.00 | 0.00 | 0.00 | 67 | 1012.0 |
| 20260905210040 | 33 | 271 | 0.0 | 11.3 | 0.00 | 0.00 | 0.00 | 67 | 1011.8 |
| 20260905205520 | 33 | 194 | 1.6 | 11.3 | 0.00 | 0.00 | 0.00 | 66 | 1011.9 |
| 20260905205020 | 33 | 162 | 3.2 | 11.3 | 0.00 | 0.00 | 0.00 | 67 | 1011.8 |
| 20260905204540 | 33 | 182 | 1.6 | 8.0 | 0.00 | 0.00 | 0.00 | 67 | 1011.9 |
| 20260905204018 | 34 | 188 | 1.6 | 8.0 | 0.00 | 0.00 | 0.00 | 65 | 1011.9 |
| 20260905203521 | 34 | 0 | 1.6 | 6.4 | 0.00 | 0.00 | 0.00 | 66 | 1011.9 |
| 20260905203042 | 34 | 0 | 1.6 | 11.3 | 0.00 | 0.00 | 0.00 | 66 | 1012.0 |
| 20260905202519 | 35 | 153 | 1.6 | 11.3 | 0.00 | 0.00 | 0.00 | 65 | 1012.0 |
| 20260905202018 | 35 | 175 | 3.2 | 11.3 | 0.00 | 0.00 | 0.00 | 65 | 1012.1 |
| 20260905201541 | 35 | 0 | 3.2 | 11.3 | 0.00 | 0.00 | 0.00 | 64 | 1012.1 |
| 20260905201020 | 35 | 334 | 1.6 | 6.4 | 0.00 | 0.00 | 0.00 | 65 | 1012.1 |
| 20260905200522 | 35 | 0 | 1.6 | 8.0 | 0.00 | 0.00 | 0.00 | 65 | 1012.1 |
| 20260905200048 | 35 | 0 | 1.6 | 9.7 | 0.00 | 0.00 | 0.00 | 67 | 1012.1 |
| 20260905195520 | 35 | 122 | 1.6 | 14.5 | 0.00 | 0.00 | 0.00 | 67 | 1012.1 |
| 20260905195018 | 34 | 191 | 3.2 | 14.5 | 0.00 | 0.00 | 0.00 | 67 | 1012.2 |
| 20260905194545 | 34 | 207 | 3.2 | 14.5 | 0.00 | 0.00 | 0.00 | 68 | 1012.2 |
| 20260905194025 | 34 | 234 | 1.6 | 6.4 | 0.00 | 0.00 | 0.00 | 68 | 1012.1 |
| 20260905193531 | 34 | 0 | 0.0 | 11.3 | 0.00 | 0.00 | 0.00 | 65 | 1012.3 |
| 20260905193045 | 35 | 251 | 1.6 | 11.3 | 0.00 | 0.00 | 0.00 | 65 | 1012.4 |
| 20260905192519 | 35 | 263 | 3.2 | 11.3 | 0.00 | 0.00 | 0.00 | 66 | 1012.4 |
| 20260905192018 | 35 | 203 | 3.2 | 8.0 | 0.00 | 0.00 | 0.00 | 62 | 1012.5 |
| 20260905191543 | 34 | 200 | 3.2 | 8.0 | 0.00 | 0.00 | 0.00 | 63 | 1012.7 |
| 20260905191023 | 33 | 136 | 0.0 | 8.0 | 0.00 | 0.00 | 0.00 | 65 | 1012.7 |
| 20260905190520 | 33 | 0 | 1.6 | 8.0 | 0.00 | 0.00 | 0.00 | 63 | 1012.7 |
| 20260905190051 | 33 | 223 | 1.6 | 8.0 | 0.00 | 0.00 | 0.00 | 66 | 1012.9 |
| 20260905185517 | 33 | 0 | 0.0 | 8.0 | 0.00 | 0.00 | 0.00 | 67 | 1012.8 |
| 20260905185021 | 33 | 0 | 0.0 | 8.0 | 0.00 | 0.00 | 0.00 | 68 | 1012.9 |
| 20260905184546 | 33 | 200 | 1.6 | 9.7 | 0.00 | 0.00 | 0.00 | 67 | 1012.9 |
| 20260905184021 | 33 | 274 | 1.6 | 9.7 | 0.00 | 0.00 | 0.00 | 68 | 1012.9 |
| 20260905183525 | 33 | 0 | 0.0 | 6.4 | 0.00 | 0.00 | 0.00 | 69 | 1012.9 |
| 20260905183044 | 33 | 235 | 1.6 | 6.4 | 0.00 | 0.00 | 0.00 | 69 | 1013.0 |
| 20260905182520 | 33 | 71 | 0.0 | 6.4 | 0.00 | 0.00 | 0.00 | 68 | 1013.1 |
| 20260905182021 | 33 | 65 | 0.0 | 6.4 | 0.00 | 0.00 | 0.00 | 66 | 1013.2 |
| 20260905181544 | 33 | 170 | 1.6 | 6.4 | 0.00 | 0.00 | 0.00 | 65 | 1013.5 |
| 20260905181020 | 33 | 257 | 0.0 | 4.8 | 0.00 | 0.00 | 0.00 | 64 | 1013.5 |
| 20260905180520 | 34 | 0 | 0.0 | 6.4 | 0.00 | 0.00 | 0.00 | 62 | 1013.6 |
| 20260905180038 | 34 | 0 | 0.0 | 6.4 | 0.00 | 0.00 | 0.00 | 61 | 1013.7 |
| 20260905175522 | 35 | 0 | 0.0 | 6.4 | 0.00 | 0.00 | 0.00 | 61 | 1013.5 |
| 20260905175023 | 35 | 207 | 1.6 | 6.4 | 0.00 | 0.00 | 0.00 | 57 | 1013.6 |
| 20260905174542 | 35 | 299 | 0.0 | 4.8 | 0.00 | 0.00 | 0.00 | 54 | 1013.6 |
| 20260905174018 | 35 | 298 | 0.0 | 6.4 | 0.00 | 0.00 | 0.00 | 55 | 1013.6 |
| 20260905173518 | 35 | 298 | 0.0 | 6.4 | 0.00 | 0.00 | 0.00 | 58 | 1013.7 |
| 20260905173040 | 35 | 0 | 0.0 | 8.0 | 0.00 | 0.00 | 0.00 | 56 | 1013.7 |
| 20260905172518 | 35 | 0 | 1.6 | 8.0 | 0.00 | 0.00 | 0.00 | 55 | 1013.8 |
| 20260905172020 | 35 | 340 | 0.0 | 3.2 | 0.00 | 0.00 | 0.00 | 57 | 1013.7 |
| 20260905171547 | 35 | 0 | 0.0 | 4.8 | 0.00 | 0.00 | 0.00 | 55 | 1013.8 |
| 20260905171017 | 35 | 0 | 0.0 | 6.4 | 0.00 | 0.00 | 0.00 | 55 | 1013.9 |
| 20260905170520 | 35 | 0 | 0.0 | 6.4 | 0.00 | 0.00 | 0.00 | 55 | 1013.9 |
| 20260905170042 | 35 | 0 | 0.0 | 4.8 | 0.00 | 0.00 | 0.00 | 54 | 1014.0 |
| 20260905165518 | 35 | 23 | 0.0 | 3.2 | 0.00 | 0.00 | 0.00 | 54 | 1014.0 |
| 20260905165020 | 36 | 0 | 0.0 | 4.8 | 0.00 | 0.00 | 0.00 | 55 | 1014.1 |
| 20260905164541 | 36 | 0 | 0.0 | 12.9 | 0.00 | 0.00 | 0.00 | 56 | 1014.0 |
| 20260905164020 | 36 | 299 | 1.6 | 12.9 | 0.00 | 0.00 | 0.00 | 56 | 1014.2 |
| 20260905163521 | 36 | 310 | 1.6 | 8.0 | 0.00 | 0.00 | 0.00 | 56 | 1014.2 |
| 20260905163044 | 36 | 42 | 0.0 | 4.8 | 0.00 | 0.00 | 0.00 | 53 | 1014.3 |
| 20260905162521 | 36 | 312 | 1.6 | 6.4 | 0.00 | 0.00 | 0.00 | 56 | 1014.3 |
| 20260905162019 | 35 | 321 | 1.6 | 9.7 | 0.00 | 0.00 | 0.00 | 56 | 1014.4 |
| 20260905161538 | 35 | 305 | 3.2 | 9.7 | 0.00 | 0.00 | 0.00 | 57 | 1014.4 |
| 20260905161020 | 35 | 0 | 0.0 | 12.9 | 0.00 | 0.00 | 0.00 | 61 | 1014.6 |
| 20260905160518 | 35 | 36 | 0.0 | 12.9 | 0.00 | 0.00 | 0.00 | 56 | 1014.6 |
| 20260905160040 | 35 | 33 | 1.6 | 11.3 | 0.00 | 0.00 | 0.00 | 56 | 1014.7 |
| 20260905155523 | 35 | 336 | 0.0 | 11.3 | 0.00 | 0.00 | 0.00 | 58 | 1014.7 |
| 20260905155017 | 35 | 46 | 1.6 | 11.3 | 0.00 | 0.00 | 0.00 | 57 | 1014.8 |
| 20260905154540 | 34 | 299 | 3.2 | 11.3 | 0.00 | 0.00 | 0.00 | 58 | 1014.8 |
| 20260905154019 | 34 | 301 | 1.6 | 11.3 | 0.00 | 0.00 | 0.00 | 62 | 1014.7 |
| 20260905153520 | 33 | 281 | 3.2 | 9.7 | 0.00 | 0.00 | 0.00 | 64 | 1014.6 |
| 20260905153058 | 33 | 342 | 0.0 | 8.0 | 0.00 | 0.00 | 0.00 | 63 | 1014.7 |
| 20260905152519 | 33 | 0 | 0.0 | 8.0 | 0.00 | 0.00 | 0.00 | 63 | 1014.6 |
| 20260905152025 | 33 | 0 | 0.0 | 4.8 | 0.00 | 0.00 | 0.00 | 67 | 1014.6 |
| 20260905151541 | 32 | 0 | 0.0 | 4.8 | 0.00 | 0.00 | 0.00 | 66 | 1014.7 |
| 20260905151021 | 32 | 0 | 0.0 | 4.8 | 0.00 | 0.00 | 0.00 | 65 | 1014.7 |
| 20260905150518 | 32 | 23 | 1.6 | 4.8 | 0.00 | 0.00 | 0.00 | 66 | 1014.7 |
| 20260905150041 | 32 | 0 | 0.0 | 4.8 | 0.00 | 0.00 | 0.00 | 67 | 1014.8 |
| 20260905145522 | 32 | 0 | 0.0 | 6.4 | 0.00 | 0.00 | 0.00 | 68 | 1014.8 |
| 20260905145020 | 32 | 0 | 0.0 | 6.4 | 0.00 | 0.00 | 0.00 | 67 | 1014.8 |
| 20260905144541 | 31 | 0 | 0.0 | 4.8 | 0.00 | 0.00 | 0.00 | 68 | 1014.9 |
| 20260905144019 | 31 | 33 | 0.0 | 3.2 | 0.00 | 0.00 | 0.00 | 70 | 1014.6 |
| 20260905143520 | 31 | 0 | 0.0 | 3.2 | 0.00 | 0.00 | 0.00 | 72 | 1014.7 |
| 20260905143041 | 31 | 27 | 0.0 | 3.2 | 0.00 | 0.00 | 0.00 | 71 | 1014.7 |
| 20260905142518 | 31 | 0 | 0.0 | 3.2 | 0.00 | 0.00 | 0.00 | 71 | 1014.8 |
| 20260905142021 | 31 | 0 | 0.0 | 3.2 | 0.00 | 0.00 | 0.00 | 73 | 1014.9 |
| 20260905141550 | 30 | 0 | 0.0 | 3.2 | 0.00 | 0.00 | 0.00 | 74 | 1014.8 |
| 20260905141022 | 30 | 0 | 0.0 | 3.2 | 0.00 | 0.00 | 0.00 | 74 | 1014.8 |
| 20260905140520 | 30 | 0 | 0.0 | 3.2 | 0.00 | 0.00 | 0.00 | 73 | 1014.7 |
| 20260905140041 | 30 | 0 | 0.0 | 1.6 | 0.00 | 0.00 | 0.00 | 73 | 1014.7 |
| 20260905135520 | 30 | 0 | 0.0 | 1.6 | 0.00 | 0.00 | 0.00 | 74 | 1014.7 |
| 20260905135020 | 29 | 0 | 0.0 | 1.6 | 0.00 | 0.00 | 0.00 | 75 | 1014.8 |
| 20260905134537 | 28 | 0 | 0.0 | 1.6 | 0.00 | 0.00 | 0.00 | 75 | 1014.7 |
| 20260905134020 | 28 | 0 | 0.0 | 1.6 | 0.00 | 0.00 | 0.00 | 75 | 1014.7 |
| 20260905133520 | 28 | 39 | 0.0 | 0.0 | 0.00 | 0.00 | 0.00 | 74 | 1014.9 |
| 20260905133035 | 28 | 0 | 0.0 | 0.0 | 0.00 | 0.00 | 0.00 | 73 | 1014.7 |
| 20260905132521 | 27 | 0 | 0.0 | 4.8 | 0.00 | 0.00 | 0.00 | 71 | 1014.8 |
| 20260905132021 | 27 | 0 | 0.0 | 4.8 | 0.00 | 0.00 | 0.00 | 68 | 1014.8 |
| 20260905131540 | 27 | 0 | 1.6 | 4.8 | 0.00 | 0.00 | 0.00 | 70 | 1014.8 |
| 20260905131021 | 27 | 39 | 0.0 | 4.8 | 0.00 | 0.00 | 0.00 | 62 | 1014.8 |
| 20260905130524 | 26 | 0 | 0.0 | 4.8 | 0.00 | 0.00 | 0.00 | 44 | 1014.7 |
| 20260905130045 | 26 | 0 | 0.0 | 3.2 | 0.00 | 0.00 | 0.00 | 30 | 1014.7 |
| 20260905125526 | 25 | 0 | 0.0 | 0.0 | 0.00 | 0.00 | 0.00 | 19 | 1014.7 |
| 20260905125021 | 25 | 0 | 0.0 | 0.0 | 0.00 | 0.00 | 0.00 | 11 | 1014.8 |
| 20260905124544 | 25 | 0 | 0.0 | 0.0 | 0.00 | 0.00 | 0.00 | 5 | 1014.8 |
| 20260905124025 | 24 | 0 | 0.0 | 0.0 | 0.00 | 0.00 | 0.00 | 4 | 1014.8 |
| 20260905123520 | 24 | 0 | 0.0 | 0.0 | 0.00 | 0.00 | 0.00 | 5 | 1014.9 |
| 20260905123041 | 24 | 0 | 0.0 | 0.0 | 0.00 | 0.00 | 0.00 | 5 | 1014.8 |
| 20260905122527 | 24 | 0 | 0.0 | 0.0 | 0.00 | 0.00 | 0.00 | 6 | 1014.7 |
| 20260905122025 | 23 | 0 | 0.0 | 0.0 | 0.00 | 0.00 | 0.00 | 6 | 1014.8 |
| 20260905121539 | 23 | 0 | 0.0 | 0.0 | 0.00 | 0.00 | 0.00 | 8 | 1014.6 |
| 20260905121023 | 23 | 0 | 0.0 | 0.0 | 0.00 | 0.00 | 0.00 | 9 | 1014.6 |
| 20260905120523 | 23 | 0 | 0.0 | 0.0 | 0.00 | 0.00 | 0.00 | 9 | 1014.6 |
| 20260905120042 | 23 | 0 | 0.0 | 0.0 | 0.00 | 0.00 | 0.00 | 9 | 1014.6 |
| 20260905115521 | 23 | 0 | 0.0 | 0.0 | 0.00 | 0.00 | 0.00 | 10 | 1014.5 |
| 20260905115018 | 23 | 0 | 0.0 | 0.0 | 0.00 | 0.00 | 0.00 | 9 | 1014.6 |
| 20260905114549 | 23 | 0 | 0.0 | 0.0 | 0.00 | 0.00 | 0.00 | 10 | 1014.4 |
| 20260905114022 | 23 | 0 | 0.0 | 0.0 | 0.00 | 0.00 | 0.00 | 12 | 1014.3 |
| 20260905113521 | 23 | 0 | 0.0 | 0.0 | 0.00 | 0.00 | 0.00 | 13 | 1014.4 |
| 20260905113041 | 23 | 0 | 0.0 | 0.0 | 0.00 | 0.00 | 0.00 | 15 | 1014.2 |
| 20260905112524 | 23 | 0 | 0.0 | 0.0 | 0.00 | 0.00 | 0.00 | 14 | 1014.3 |
| 20260905112023 | 23 | 0 | 0.0 | 0.0 | 0.00 | 0.00 | 0.00 | 16 | 1014.3 |
| 20260905111544 | 23 | 0 | 0.0 | 0.0 | 0.00 | 0.00 | 0.00 | 18 | 1014.3 |
| 20260905111023 | 23 | 0 | 0.0 | 0.0 | 0.00 | 0.00 | 0.00 | 16 | 1014.2 |
| 20260905110521 | 23 | 0 | 0.0 | 0.0 | 0.00 | 0.00 | 0.00 | 14 | 1014.3 |
| 20260905110041 | 23 | 0 | 0.0 | 0.0 | 0.00 | 0.00 | 0.00 | 15 | 1014.2 |
| 20260905105519 | 23 | 0 | 0.0 | 0.0 | 0.00 | 0.00 | 0.00 | 16 | 1014.2 |
| 20260905105019 | 23 | 0 | 0.0 | 0.0 | 0.00 | 0.00 | 0.00 | 19 | 1014.2 |
| 20260905104549 | 23 | 0 | 0.0 | 0.0 | 0.00 | 0.00 | 0.00 | 21 | 1014.1 |
| 20260905104017 | 24 | 0 | 0.0 | 0.0 | 0.00 | 0.00 | 0.00 | 23 | 1014.2 |
| 20260905103520 | 24 | 0 | 0.0 | 0.0 | 0.00 | 0.00 | 0.00 | 22 | 1014.2 |
| 20260905103043 | 24 | 0 | 0.0 | 0.0 | 0.00 | 0.00 | 0.00 | 22 | 1014.1 |
| 20260905102520 | 24 | 0 | 0.0 | 0.0 | 0.00 | 0.00 | 0.00 | 25 | 1014.2 |
| 20260905102023 | 24 | 0 | 0.0 | 0.0 | 0.00 | 0.00 | 0.00 | 26 | 1014.2 |
| 20260905101545 | 24 | 0 | 0.0 | 0.0 | 0.00 | 0.00 | 0.00 | 22 | 1014.1 |
| 20260905101022 | 24 | 0 | 0.0 | 0.0 | 0.00 | 0.00 | 0.00 | 22 | 1014.1 |
| 20260905100521 | 24 | 0 | 0.0 | 0.0 | 0.00 | 0.00 | 0.00 | 23 | 1014.3 |
| 20260905100041 | 24 | 0 | 0.0 | 0.0 | 0.00 | 0.00 | 0.00 | 25 | 1014.2 |